GW4082 Weather Reports


time (UTC)temp
C
wind
direction
speed
KPH
gust
KPH
rain 1hr
cm
rain 24hr
cm
rain mn
cm
humidity
%
barometer
mb
20260506044804 15 324 0.0 0.0 0.00 0.00 0.00 86 1007.4
20260506044301 15 326 0.0 0.0 0.00 0.00 0.00 86 1007.5
20260506043758 15 326 0.0 3.2 0.00 0.00 0.00 86 1007.5
20260506043255 15 320 0.0 0.0 0.00 0.00 0.00 86 1007.5
20260506042754 15 323 0.0 0.0 0.00 0.00 0.00 86 1007.5
20260506042253 15 326 0.0 3.2 0.00 0.00 0.00 85 1007.4
20260506041751 15 323 0.0 3.2 0.00 0.00 0.00 85 1007.5
20260506041247 15 320 1.6 3.2 0.00 0.00 0.00 85 1007.3
20260506040745 15 325 0.0 0.0 0.00 0.00 0.00 85 1007.2
20260506040242 15 330 0.0 0.0 0.00 0.00 0.00 85 1007.3
20260506035738 15 332 0.0 0.0 0.00 0.00 0.00 84 1007.3
20260506035235 15 333 0.0 0.0 0.00 0.00 0.00 84 1007.3
20260506034732 15 333 0.0 0.0 0.00 0.00 0.00 84 1007.4
20260506034230 15 333 0.0 0.0 0.00 0.00 0.00 84 1007.3
20260506033727 15 332 0.0 0.0 0.00 0.00 0.00 83 1007.4
20260506033224 16 325 0.0 0.0 0.00 0.00 0.00 83 1007.4
20260506032720 16 327 0.0 0.0 0.00 0.00 0.00 83 1007.4
20260506032217 16 322 0.0 3.2 0.00 0.00 0.00 84 1007.4
20260506031714 16 326 0.0 0.0 0.00 0.00 0.00 84 1007.4
20260506031211 16 324 0.0 3.2 0.00 0.00 0.00 84 1007.5
20260506030710 16 324 0.0 0.0 0.00 0.00 0.00 84 1007.4
20260506030207 16 332 0.0 0.0 0.00 0.00 0.00 83 1007.4
20260506025703 16 325 0.0 0.0 0.00 0.00 0.00 82 1007.5
20260506025159 16 326 0.0 0.0 0.00 0.00 0.00 82 1007.6
20260506024657 16 328 0.0 0.0 0.00 0.00 0.00 81 1007.5
20260506024153 16 325 0.0 0.0 0.00 0.00 0.00 81 1007.8
20260506023649 16 335 0.0 0.0 0.00 0.00 0.00 79 1007.6
20260506023147 16 335 0.0 0.0 0.00 0.00 0.00 79 1007.6
20260506022644 16 335 0.0 0.0 0.00 0.00 0.00 79 1007.6
20260506022141 16 335 0.0 0.0 0.00 0.00 0.00 79 1007.5
20260506021639 17 337 0.0 0.0 0.00 0.00 0.00 79 1007.4
20260506021136 17 337 0.0 0.0 0.00 0.00 0.00 79 1007.4
20260506020633 17 339 0.0 0.0 0.00 0.00 0.00 78 1007.4
20260506020131 17 339 0.0 0.0 0.00 0.00 0.00 78 1007.7
20260506015628 17 317 0.0 0.0 0.00 0.00 0.00 78 1007.6
20260506015125 17 329 0.0 0.0 0.00 0.00 0.00 76 1007.5
20260506014623 17 327 3.2 8.0 0.00 0.00 0.00 76 1007.5
20260506014118 17 334 0.0 0.0 0.00 0.00 0.00 76 1007.4
20260506013617 17 333 0.0 0.0 0.00 0.00 0.00 75 1007.4
20260506013113 17 333 0.0 0.0 0.00 0.00 0.00 74 1007.3
20260506012609 18 335 0.0 0.0 0.00 0.00 0.00 74 1007.5
20260506012106 18 335 0.0 0.0 0.00 0.00 0.00 72 1007.4
20260506011604 18 335 0.0 0.0 0.00 0.00 0.00 71 1007.3
20260506011100 18 335 0.0 0.0 0.00 0.00 0.00 71 1007.3
20260506010559 19 335 0.0 0.0 0.00 0.00 0.00 70 1007.2
20260506010055 19 331 0.0 0.0 0.00 0.00 0.00 69 1007.1
20260506005553 19 336 0.0 0.0 0.00 0.00 0.00 69 1007.3
20260506005048 19 333 0.0 0.0 0.00 0.00 0.00 68 1007.2
20260506004546 20 332 0.0 0.0 0.00 0.00 0.00 68 1007.0
20260506004042 20 330 0.0 0.0 0.00 0.00 0.00 67 1007.1
20260506003539 20 325 0.0 0.0 0.00 0.00 0.00 67 1007.0
20260506003035 20 334 0.0 0.0 0.00 0.00 0.00 66 1007.0
20260506002531 20 337 0.0 0.0 0.00 0.00 0.00 66 1006.9
20260506002027 20 329 0.0 0.0 0.00 0.00 0.00 65 1007.0
20260506001524 21 323 0.0 0.0 0.00 0.00 0.00 62 1006.8
20260506001021 21 323 0.0 0.0 0.00 0.00 0.00 62 1006.8
20260506000519 21 322 0.0 0.0 0.00 0.00 0.00 63 1006.6
20260506000016 21 330 0.0 0.0 0.00 0.00 0.00 61 1006.6
20260505235514 21 324 0.0 3.2 0.00 0.00 0.00 61 1006.6
20260505235010 21 322 0.0 3.2 0.00 0.00 0.00 61 1006.5
20260505234507 22 324 0.0 3.2 0.00 0.00 0.00 60 1006.6
20260505234004 22 252 1.6 3.2 0.00 0.00 0.00 60 1006.6
20260505233501 22 304 3.2 8.0 0.00 0.00 0.00 59 1006.5
20260505232959 22 303 3.2 8.0 0.00 0.00 0.00 58 1006.6
20260505232457 22 317 1.6 11.3 0.00 0.00 0.00 57 1006.6
20260505231954 22 284 4.8 8.0 0.00 0.00 0.00 56 1006.4
20260505231451 23 293 6.4 8.0 0.00 0.00 0.00 55 1006.5
20260505230949 23 321 3.2 3.2 0.00 0.00 0.00 54 1006.4
20260505230446 23 318 6.4 8.0 0.00 0.00 0.00 54 1006.2
20260505225942 23 253 4.8 8.0 0.00 0.00 0.00 53 1006.2
20260505225440 23 307 6.4 8.0 0.00 0.00 0.00 52 1006.2
20260505224936 23 284 9.7 11.3 0.00 0.00 0.00 52 1006.3
20260505224433 23 277 4.8 11.3 0.00 0.00 0.00 51 1006.1
20260505223930 23 306 9.7 16.1 0.00 0.00 0.00 51 1006.1
20260505223427 23 291 4.8 8.0 0.00 0.00 0.00 51 1006.3
20260505222923 24 300 11.3 16.1 0.00 0.00 0.00 50 1006.4
20260505222419 24 316 9.7 11.3 0.00 0.00 0.00 49 1006.4
20260505221915 25 289 9.7 16.1 0.00 0.00 0.00 47 1006.1
20260505221413 25 279 12.9 19.3 0.00 0.00 0.00 46 1005.9
20260505220910 25 318 11.3 27.4 0.00 0.00 0.00 45 1006.1
20260505220407 25 278 24.1 30.6 0.00 0.00 0.00 43 1005.9
20260505215905 26 323 9.7 16.1 0.00 0.00 0.00 41 1006.0
20260505215402 26 309 6.4 11.3 0.00 0.00 0.00 41 1005.8
20260505214900 26 311 6.4 11.3 0.00 0.00 0.00 40 1005.7
20260505214357 26 315 6.4 8.0 0.00 0.00 0.00 39 1005.6
20260505213854 26 295 9.7 11.3 0.00 0.00 0.00 39 1005.5
20260505213352 26 262 9.7 11.3 0.00 0.00 0.00 40 1005.7
20260505212848 26 300 6.4 11.3 0.00 0.00 0.00 40 1005.5
20260505212345 26 297 3.2 11.3 0.00 0.00 0.00 40 1005.3
20260505211841 26 290 9.7 11.3 0.00 0.00 0.00 40 1005.3
20260505211339 26 308 4.8 8.0 0.00 0.00 0.00 41 1005.2
20260505210835 27 266 12.9 24.1 0.00 0.00 0.00 39 1005.3
20260505210332 27 290 11.3 19.3 0.00 0.00 0.00 39 1005.1
20260505205829 27 282 6.4 11.3 0.00 0.00 0.00 39 1005.2
20260505205328 27 284 6.4 19.3 0.00 0.00 0.00 39 1005.3
20260505204824 27 256 11.3 19.3 0.00 0.00 0.00 38 1005.5
20260505204322 27 340 6.4 11.3 0.00 0.00 0.00 38 1005.4
20260505203819 27 301 11.3 16.1 0.00 0.00 0.00 37 1005.3
20260505203315 27 274 4.8 19.3 0.00 0.00 0.00 39 1005.4
20260505202812 26 281 9.7 24.1 0.00 0.00 0.00 38 1005.5
20260505202308 27 289 11.3 19.3 0.00 0.00 0.00 37 1005.5
20260505201805 27 239 9.7 16.1 0.00 0.00 0.00 37 1005.5
20260505201302 27 254 14.5 24.1 0.00 0.00 0.00 37 1005.4
20260505200800 27 260 20.9 30.6 0.00 0.00 0.00 37 1005.3
20260505200257 27 233 14.5 24.1 0.00 0.00 0.00 38 1005.2
20260505195752 27 272 8.0 16.1 0.00 0.00 0.00 37 1005.3
20260505195250 27 307 3.2 11.3 0.00 0.00 0.00 37 1005.3
20260505194747 27 255 14.5 19.3 0.00 0.00 0.00 36 1005.5
20260505194244 28 227 22.5 30.6 0.00 0.00 0.00 37 1005.4
20260505193739 27 336 8.0 19.3 0.00 0.00 0.00 41 1005.4
20260505193237 27 290 8.0 19.3 0.00 0.00 0.00 41 1005.2
20260505192735 27 296 9.7 30.6 0.00 0.00 0.00 40 1005.5
20260505192233 27 285 9.7 11.3 0.00 0.00 0.00 39 1005.4
20260505191731 28 224 33.8 54.7 0.00 0.00 0.00 37 1005.3
20260505191229 28 290 20.9 43.5 0.00 0.00 0.00 36 1005.4
20260505190725 28 218 35.4 54.7 0.00 0.00 0.00 37 1005.3
20260505190225 28 238 11.3 30.6 0.00 0.00 0.00 41 1005.4
20260505185721 29 11 14.5 27.4 0.00 0.00 0.00 40 1005.7
20260505185218 28 128 12.9 19.3 0.00 0.00 0.00 39 1005.5
20260505184714 28 227 20.9 54.7 0.00 0.00 0.00 36 1005.7
20260505184212 28 230 4.8 16.1 0.00 0.00 0.00 42 1005.9
20260505183708 28 332 16.1 24.1 0.00 0.00 0.00 42 1005.9
20260505183206 28 318 11.3 24.1 0.00 0.00 0.00 43 1005.8
20260505182701 28 293 12.9 27.4 0.00 0.00 0.00 41 1005.9
20260505182159 28 273 16.1 30.6 0.00 0.00 0.00 40 1005.9
20260505181655 27 325 19.3 27.4 0.00 0.00 0.00 42 1006.1
20260505181153 28 191 9.7 16.1 0.00 0.00 0.00 41 1006.3
20260505180649 27 296 11.3 30.6 0.00 0.00 0.00 41 1006.3
20260505180147 27 169 16.1 27.4 0.00 0.00 0.00 41 1006.4
20260505175642 27 304 24.1 30.6 0.00 0.00 0.00 41 1006.7
20260505175139 27 299 8.0 30.6 0.00 0.00 0.00 42 1006.6
20260505174636 27 291 12.9 24.1 0.00 0.00 0.00 42 1006.5
20260505174132 27 288 16.1 54.7 0.00 0.00 0.00 40 1006.6
20260505173623 27 210 22.5 43.5 0.00 0.00 0.00 43 1006.7
20260505173120 27 231 19.3 38.6 0.00 0.00 0.00 41 1006.6
20260505172618 26 294 11.3 27.4 0.00 0.00 0.00 44 1006.8
20260505172114 26 268 14.5 19.3 0.00 0.00 0.00 43 1006.6
20260505171609 26 256 11.3 30.6 0.00 0.00 0.00 44 1006.7
20260505171106 27 264 22.5 27.4 0.00 0.00 0.00 42 1006.7
20260505170603 27 273 12.9 30.6 0.00 0.00 0.00 41 1006.8
20260505170100 27 288 17.7 30.6 0.00 0.00 0.00 43 1007.0
20260505165554 27 226 22.5 43.5 0.00 0.00 0.00 44 1007.1
20260505165051 27 269 8.0 19.3 0.00 0.00 0.00 45 1006.9
20260505164547 26 246 16.1 27.4 0.00 0.00 0.00 43 1007.2
20260505164045 27 247 16.1 27.4 0.00 0.00 0.00 43 1007.0
20260505163543 26 272 12.9 27.4 0.00 0.00 0.00 44 1007.1
20260505163039 26 288 11.3 27.4 0.00 0.00 0.00 44 1007.4
20260505162538 26 270 16.1 35.4 0.00 0.00 0.00 45 1007.2
20260505162035 26 288 17.7 24.1 0.00 0.00 0.00 45 1007.6
20260505161532 26 238 12.9 27.4 0.00 0.00 0.00 45 1007.6
20260505161029 26 295 12.9 27.4 0.00 0.00 0.00 45 1007.6
20260505160527 26 273 30.6 46.7 0.00 0.00 0.00 44 1007.8
20260505153002 25 268 22.5 38.6 0.00 0.00 0.00 48 1008.2
20260505152455 25 273 11.3 27.4 0.00 0.00 0.00 50 1007.9
20260505151950 25 211 19.3 27.4 0.00 0.00 0.00 49 1008.2
20260505151445 25 236 14.5 19.3 0.00 0.00 0.00 49 1008.2
20260505150942 25 329 9.7 16.1 0.00 0.00 0.00 51 1008.2
20260505150434 24 230 20.9 27.4 0.00 0.00 0.00 50 1008.2
20260505140404 22 280 6.4 19.3 0.00 0.00 0.00 58 1008.1
20260505124817 19 268 4.8 8.0 0.00 0.00 0.00 64 1008.4
20260505124314 19 275 4.8 11.3 0.00 0.00 0.00 65 1008.6
20260505123810 18 330 3.2 8.0 0.00 0.00 0.00 66 1008.7
20260505123307 18 310 4.8 11.3 0.00 0.00 0.00 67 1008.6
20260505122803 18 273 6.4 11.3 0.00 0.00 0.00 69 1008.7
20260505122301 17 168 3.2 11.3 0.00 0.00 0.00 70 1008.7
20260505121757 17 300 8.0 11.3 0.00 0.00 0.00 71 1008.9
20260505121254 17 239 4.8 8.0 0.00 0.00 0.00 72 1008.8
20260505120750 17 202 6.4 11.3 0.00 0.00 0.00 71 1008.8
20260505120246 17 275 1.6 11.3 0.00 0.00 0.00 72 1008.8
20260505115744 16 270 6.4 8.0 0.00 0.00 0.00 73 1008.8
20260505115242 16 303 3.2 11.3 0.00 0.00 0.00 73 1008.6
20260505114740 16 151 6.4 16.1 0.00 0.00 0.00 73 1008.8
20260505114236 16 302 1.6 11.3 0.00 0.00 0.00 74 1008.6
20260505113733 16 321 1.6 8.0 0.00 0.00 0.00 74 1008.5
20260505113230 16 307 8.0 11.3 0.00 0.00 0.00 74 1008.4
20260505112726 16 240 0.0 11.3 0.00 0.00 0.00 74 1008.5
20260505112224 16 153 6.4 8.0 0.00 0.00 0.00 74 1008.5
20260505111723 16 294 3.2 8.0 0.00 0.00 0.00 74 1008.5
20260505111220 16 314 3.2 11.3 0.00 0.00 0.00 73 1008.4
20260505110715 16 290 6.4 8.0 0.00 0.00 0.00 73 1008.2
20260505110213 16 299 3.2 8.0 0.00 0.00 0.00 73 1008.4
20260505102148 15 303 3.2 8.0 0.00 0.00 0.00 73 1008.3
20260505101647 15 284 3.2 3.2 0.00 0.00 0.00 74 1008.1
20260505101143 15 309 3.2 8.0 0.00 0.00 0.00 73 1008.2
20260505100639 16 244 4.8 11.3 0.00 0.00 0.00 72 1007.9
20260505100137 16 300 6.4 11.3 0.00 0.00 0.00 72 1008.3
20260505095632 16 311 3.2 8.0 0.00 0.00 0.00 72 1008.1
20260505095130 16 302 4.8 11.3 0.00 0.00 0.00 72 1008.2
20260505094626 16 296 8.0 11.3 0.00 0.00 0.00 72 1007.7
20260505094122 15 293 3.2 3.2 0.00 0.00 0.00 73 1007.9
20260505093619 15 326 0.0 0.0 0.00 0.00 0.00 73 1007.8
20260505093116 15 312 4.8 11.3 0.00 0.00 0.00 72 1007.6
20260505092613 16 282 3.2 8.0 0.00 0.00 0.00 72 1007.8
20260505092112 16 314 3.2 11.3 0.00 0.00 0.00 72 1007.4
20260505091608 16 281 4.8 8.0 0.00 0.00 0.00 72 1007.5
20260505091106 16 313 3.2 16.1 0.00 0.00 0.00 71 1007.5
20260505090604 16 174 4.8 16.1 0.00 0.00 0.00 71 1007.4
20260505085559 16 271 0.0 3.2 0.00 0.00 0.00 72 1007.2
20260505085057 16 283 6.4 8.0 0.00 0.00 0.00 71 1007.5
20260505084555 16 289 3.2 8.0 0.00 0.00 0.00 71 1007.6
20260505084053 16 314 0.0 0.0 0.00 0.00 0.00 71 1007.7
20260505083549 16 311 3.2 8.0 0.00 0.00 0.00 71 1007.7
20260505083046 16 317 0.0 3.2 0.00 0.00 0.00 70 1007.6
20260505082542 16 305 3.2 8.0 0.00 0.00 0.00 70 1007.7
20260505082039 16 322 0.0 3.2 0.00 0.00 0.00 69 1007.4
20260505081535 16 311 0.0 8.0 0.00 0.00 0.00 69 1007.6
20260505081033 16 308 3.2 3.2 0.00 0.00 0.00 70 1007.5
20260505080529 16 304 0.0 3.2 0.00 0.00 0.00 70 1007.5
20260505080026 16 295 0.0 3.2 0.00 0.00 0.00 69 1007.2
20260505075522 16 292 0.0 8.0 0.00 0.00 0.00 68 1007.3
20260505075019 16 293 1.6 8.0 0.00 0.00 0.00 68 1007.3
20260505074516 16 278 0.0 3.2 0.00 0.00 0.00 68 1007.4
20260505074013 16 285 0.0 0.0 0.00 0.00 0.00 68 1007.3
20260505073510 16 275 4.8 8.0 0.00 0.00 0.00 68 1007.4
20260505073009 16 289 3.2 3.2 0.00 0.00 0.00 68 1007.1
20260505072504 16 315 0.0 3.2 0.00 0.00 0.00 67 1007.2
20260505072000 16 304 3.2 3.2 0.00 0.00 0.00 67 1007.0
20260505071456 16 322 3.2 3.2 0.00 0.00 0.00 67 1006.9
20260505070954 15 286 3.2 8.0 0.00 0.00 0.00 70 1007.2
20260505070450 16 297 0.0 0.0 0.00 0.00 0.00 69 1007.2
20260505065946 16 293 0.0 3.2 0.00 0.00 0.00 69 1007.1
20260505065443 16 293 0.0 3.2 0.00 0.00 0.00 68 1007.2
20260505064939 16 291 0.0 3.2 0.00 0.00 0.00 68 1007.2
20260505064436 16 185 1.6 3.2 0.00 0.00 0.00 68 1007.2
20260505063935 15 309 0.0 3.2 0.00 0.00 0.00 69 1007.2
20260505063431 16 309 0.0 0.0 0.00 0.00 0.00 68 1007.2
20260505062928 16 308 0.0 0.0 0.00 0.00 0.00 67 1007.1
20260505062425 16 308 0.0 0.0 0.00 0.00 0.00 67 1007.2
20260505061921 16 307 0.0 0.0 0.00 0.00 0.00 66 1007.4
20260505061420 16 311 0.0 0.0 0.00 0.00 0.00 66 1007.4
20260505060917 16 314 0.0 0.0 0.00 0.00 0.00 66 1007.5
20260505060414 16 315 0.0 0.0 0.00 0.00 0.00 65 1007.4
20260505055910 16 315 3.2 3.2 0.00 0.00 0.00 64 1007.5
20260505055407 17 315 0.0 3.2 0.00 0.00 0.00 63 1007.4
20260505054903 17 292 1.6 3.2 0.00 0.00 0.00 62 1007.4
20260505054400 16 307 0.0 0.0 0.00 0.00 0.00 63 1007.5
20260505053859 17 308 0.0 0.0 0.00 0.00 0.00 63 1007.7
20260505053356 16 308 0.0 3.2 0.00 0.00 0.00 63 1007.6
20260505052852 16 308 0.0 3.2 0.00 0.00 0.00 63 1007.6
20260505052349 16 309 0.0 0.0 0.00 0.00 0.00 62 1007.7
20260505051846 16 307 0.0 3.2 0.00 0.00 0.00 62 1007.7
20260505051343 16 307 0.0 0.0 0.00 0.00 0.00 62 1007.6
20260505050841 16 307 0.0 3.2 0.00 0.00 0.00 63 1007.7
20260505050340 16 305 0.0 3.2 0.00 0.00 0.00 63 1007.9